AirNav   Phillips 66 Aviation Fuel
 
 907 users online  

5D7 Dayton Transportation Center Heliport
Dayton, Ohio, USA

GOING TO DAYTON?


FAA INFORMATION EFFECTIVE 24 MAY 2018

Location

FAA Identifier: 5D7
Lat/Long: 39-45-27.2000N / 084-11-18.2200W
39-45.453333N / 084-11.303667W
39.7575556 / -84.1883944
(estimated)
Elevation: 800 ft. / 244 m (estimated)
Variation: 04W (1985)
Time zone: UTC -4 (UTC -5 during Standard Time)
Zip code: 45402

Heliport Operations

Heliport use: Open to the public
Activation date: 11/1977
Control tower: no
ARTCC: INDIANAPOLIS CENTER
FSS: DAYTON FLIGHT SERVICE STATION
NOTAMs facility: DAY (NOTAM-D service available)
Attendance: UNATNDD
Wind indicator: yes
Segmented circle: no
Lights: FOR PERIMETER LGTS CALL SUPT OF ACFT OPNS AT 937-454-8299. 24-HR ADVANCE NOTICE FOR USE REQUIRED.
Beacon: white-green-yellow (heliport)
FOR BCN CALL SUPT OF ACFT OPNS AT 937-454-8299. 24-HR ADVANCE NOTICE FOR USE REQUIRED.

Heliport Communications

CTAF: 122.9
WX ASOS at DAY (9 nm N): PHONE 937-415-6819
WX AWOS-3 at I19 (10 nm SE): 118.525 (937-372-4668)
WX ASOS at MGY (10 nm S): 118.375 (937-885-2171)
WX AWOS-3 at MWO (17 nm SW): 120.025 (513-422-3505)
WX AWOS-3PT at SGH (17 nm E): 134.975
WX AWOS-3 at I68 (18 nm S): 120.55 (513-934-5500)

Nearby radio navigation aids

VOR radial/distance  VOR name  Freq  Var
SGHr257/16.5SPRINGFIELD VOR/DME113.2004W
DQNr149/18.3DAYTON VOR/DME114.5001W
MXQr322/26.6MIDWEST VOR/DME112.9004W
RIDr093/30.0RICHMOND VORTAC110.6003W
RODr197/32.5ROSEWOOD VORTAC117.5005W

 
NDB name  Hdg/Dist  Freq  Var  ID
BRUNY134/8.631506WAT .- -
ONIDA034/12.422304WMW -- .--
HOOK FIELD042/19.623904WHKF .... -.- ..-.
CLARK COUNTY254/20.134104WCCJ -.-. -.-. .---
MADEIRA018/33.037904WMDE -- -.. .
CINCINNATI015/36.633504WLUK .-.. ..- -.-
COURT HOUSE290/38.041406WCSS -.-. ... ...

Heliport Services

Runway Information

Helipad H1

Dimensions: 40 x 40 ft. / 12 x 12 m
Surface: concrete, in good condition
ROOFTOP: 40 FT BY 40 FT CONCRETE PAD WITHIN 80 FT BY 60 FT LANDING/TAKEOFF AREA. MAXIMUM LANDING WEIGHT 4500 POUNDS.
Weight bearing capacity: 
Single wheel: 4500.0
Runway edge lights: PERI
Latitude: 39-45.453333N
Longitude: 084-11.303667W
Elevation: 800.0 ft.
Traffic pattern: leftleft
Markings: none
Obstructions: 85 ft. bldg, 315 ft. from runway, 3:1 slope to clear
APCH 39:1 FM N, 3:1 FM W, 25:1 FM S, 11:1 FM E.

Heliport Ownership and Management from official FAA records

Ownership: Publicly-owned
Owner: CITY OF DAYTON
101 W THIRD ST
DAYTON, OH 45402
Phone 937-454-8299
Manager: DEPARTMENT OF AVIATION
101 W. THIRD ST.
VANDALIA, OH 45377
Phone 937-454-8299
ROOM 304; TERMINAL BLDG; 3600 TERMINAL DRIVE DAYTON INTL ARPT.

Heliport Operational Statistics

Aircraft operations: 12/year *
100% transient general aviation
* for 12-month period ending 02 September 2016

Instrument Procedures

There are no published instrument procedures at 5D7.

Some nearby airports with instrument procedures:

KFFO - Wright-Patterson Air Force Base (8 nm NE)
KDAY - James M Cox Dayton International Airport (9 nm N)
I19 - Greene County-Lewis A Jackson Regional Airport (10 nm SE)
KMGY - Dayton-Wright Brothers Airport (10 nm S)
3I7 - Dayton-Phillipsburg Airport (14 nm NW)
KMWO - Middletown Regional Airport/Hook Field (17 nm SW)
KSGH - Springfield-Beckley Municipal Airport (17 nm E)
I68 - Warren County Airport/John Lane Field (18 nm S)
 
Loc | Ops | Rwys | IFR | FBO | Links
Com | Nav | Svcs | Stats | Notes

AirNav Hotels Sweepstakes
 
Area around 5D7 (Dayton Transportation Center Heliport)
 
Road maps at: MapQuest Bing Google
 
Aerial photo
No photo
 
Sectional chart

 
Airport distance calculator
Flying to Dayton Transportation Center Heliport? Find the distance to fly.

From to 5D7

Sunrise and sunset
Times for 25-May-2018
 Local
(UTC-4)
 Zulu
(UTC)
Morning civil twilight05:4409:44
Sunrise06:1510:15
Sunset20:5200:52
Evening civil twilight21:2301:23

Current date and time
Zulu (UTC)  25-May-2018 23:59:57
Local (UTC-4)  25-May-2018 19:59:57
 
METAR
KFFO 
8nm NE 
252256Z AUTO 23007KT 10SM CLR 30/10 A2986 RMK AO2 RAB11E28 SLP109 P0000 T02960097 TSNO $
KDAY 
9nm N 
252256Z 23009KT 10SM FEW250 28/13 A2988 RMK AO2 SLP112 T02830133
KMGY 
10nm S 
252353Z AUTO 25007KT 10SM CLR 29/12 A2987 RMK AO2 SLP108 T02890117 10306 20289 55006
KMWO 
17nm SW 
252335Z AUTO 24004KT 10SM CLR 28/15 A2987 RMK AO2 T02770153
KSGH 
18nm E 
252256Z AUTO 22008KT 10SM CLR 29/13 A2988 RMK AO2 SLP113 T02890128
TAF
KFFO 
8nm NE 
251900Z 2519/2701 VRB06KT 9999 FEW200 QNH2983INS BECMG 2611/2612 26012G18KT 6000 -SHRA OVC035 QNH2978INS TEMPO 2612/2615 25015G25KT 4800 -TSRA OVC025CB TEMPO 2616/2623 25020G30KT 3200 -TSRA OVC020CB TX32/2520Z TN13/2610Z
KDAY 
9nm N 
251910Z 2519/2618 22009KT P6SM FEW050 SCT250 FM260600 19005KT P6SM BKN050 OVC150 FM260900 19006KT P6SM VCSH BKN040 OVC150 FM261600 21006KT P6SM VCTS BKN025CB
NOTAMs
Click for the latest NOTAMs
NOTAMs are issued by the DoD/FAA and will open in a separate window not controlled by AirNav.

 

 
 

Would you like to see your business listed on this page?

 If your business provides an interesting product or service to pilots, flight crews, aircraft, or users of the Dayton Transportation Center Heliport, you should consider listing it here.  To start the listing process, click on the button below
 
Add a business
 

Other Pages about Dayton Transportation Center Heliport

Update a link
 
Copyright © AirNav, LLC. All rights reserved. Privacy Policy  Contact